Weather History for KFYV - January, 2013

Change the Weather History Date:

Monday, January 7, 2013

  Actual Average Record
Temperature  
Mean Temperature 33 °F 35 °F  
Max Temperature 50 °F 46 °F 70 °F (2008)
Min Temperature 15 °F 25 °F -8 °F (1970)
Degree Days  
Heating Degree Days 32 30  
Month to date heating degree days 236 210  
Since 1 July heating degree days 1754 1893  
Moisture  
Dew Point 20 °F    
Average Humidity 64    
Maximum Humidity 92    
Minimum Humidity 36    
Precipitation  
Precipitation 0.00 in 0.09 in - ()
Month to date precipitation 0.01 0.66  
Year to date precipitation 0.01 0.66  
Sea Level Pressure  
Sea Level Pressure 30.28 in    
Wind  
Wind Speed 4 mph (South)    
Max Wind Speed 15 mph    
Max Gust Speed 20 mph    
Visibility 10 miles    
Events      
T = Trace of Precipitation, MM = Missing Value Source: NWS Daily Summary

Daily Weather History Graph

Daily Weather History Graph

Search for Another Location

Airport or City:

Trip Planner

Search our weather history database for the weather conditions in past years. The results will help you decide how hot, cold, wet, or windy it might be!

Date:

Astronomy

Jan. 07, 2013 Rise Set
Actual Time 7:27 AM CST 5:18 PM CST
Civil Twilight 6:59 AM CST 5:46 PM CST
Nautical Twilight 6:27 AM CST 6:18 PM CST
Astronomical Twilight 5:56 AM CST 6:49 PM CST
Moon 2:54 AM CST (1/7) 1:28 PM CST (1/7)
Length of Visible Light 10h 47m
Length of Day
9h 50m
Waning Crescent, 22% of the Moon is Illuminated
Jan 7
Waning Crescent
Jan 11
New
Jan 18
First Quarter
Jan 26
Full
Feb 3
Last Quarter

Hourly Weather History & Observations

Time (CST) Temp. Windchill Dew Point Humidity Pressure Visibility Wind Dir Wind Speed Gust Speed Precip Events Conditions
12:53 AM 19.0 °F - 17.1 °F 92% 30.38 in 10.0 mi Calm Calm - N/A   Clear
1:53 AM 18.0 °F - 16.0 °F 92% 30.37 in 10.0 mi Calm Calm - N/A   Clear
2:53 AM 18.0 °F - 16.0 °F 92% 30.36 in 10.0 mi Calm Calm - N/A   Clear
3:53 AM 17.1 °F - 14.0 °F 88% 30.34 in 10.0 mi Calm Calm - N/A   Clear
4:53 AM 16.0 °F - 14.0 °F 92% 30.34 in 10.0 mi Calm Calm - N/A   Clear
5:53 AM 16.0 °F - 12.9 °F 88% 30.35 in 10.0 mi Calm Calm - N/A   Clear
6:53 AM 15.1 °F - 12.0 °F 88% 30.37 in 10.0 mi Calm Calm - N/A   Clear
7:53 AM 16.0 °F - 12.9 °F 88% 30.38 in 10.0 mi Calm Calm - N/A   Clear
8:53 AM 23.0 °F - 19.9 °F 88% 30.38 in 10.0 mi Calm Calm - N/A   Clear
9:53 AM 35.1 °F - 28.0 °F 76% 30.36 in 10.0 mi Calm Calm - N/A   Clear
10:53 AM 46.0 °F 40.2 °F 25.0 °F 44% 30.35 in 10.0 mi SSW 12.7 mph - N/A   Clear
11:53 AM 48.0 °F - 24.1 °F 39% 30.30 in 10.0 mi South 10.4 mph - N/A   Clear
12:53 PM 48.2 °F - 24.8 °F 40% 30.23 in 10.0 mi SSE 10.4 mph 17.3 mph N/A   Clear
1:53 PM 48.9 °F - 23.0 °F 36% 30.24 in 10.0 mi South 11.5 mph - N/A   Clear
2:53 PM 48.9 °F - 23.0 °F 36% 30.24 in 10.0 mi South 9.2 mph - N/A   Clear
3:53 PM 48.9 °F - 23.0 °F 36% 30.22 in 10.0 mi South 6.9 mph - N/A   Clear
4:53 PM 41.0 °F 36.4 °F 23.0 °F 49% 30.22 in 10.0 mi South 6.9 mph - N/A   Clear
5:53 PM 37.0 °F 34.5 °F 23.0 °F 57% 30.22 in 10.0 mi South 3.5 mph - N/A   Clear
6:53 PM 37.0 °F 34.5 °F 23.0 °F 57% 30.22 in 10.0 mi SSW 3.5 mph - N/A   Clear
7:53 PM 37.0 °F 34.5 °F 23.0 °F 57% 30.22 in 10.0 mi South 3.5 mph - N/A   Clear
8:53 PM 33.1 °F - 23.0 °F 66% 30.20 in 10.0 mi Calm Calm - N/A   Clear
9:53 PM 30.9 °F - 24.1 °F 76% 30.18 in 10.0 mi Calm Calm - N/A   Clear
10:53 PM 30.9 °F 26.2 °F 23.0 °F 72% 30.15 in 10.0 mi SSE 4.6 mph - N/A   Clear
11:53 PM 28.9 °F - 21.9 °F 75% 30.14 in 10.0 mi Calm Calm - N/A   Clear